[[{"header":{"parameterUnit":"m.s-1","parameterCategory":1,"la1":30.2991,"la2":30.254,"lo1":-89.0895,"lo2":-89.0444,"dy":0.0017,"dx":0.0017,"nx":28,"ny":28,"refTime":"2023-07-25T03:00:00:Z","depth":0,"parameterNumber":2,"parameterNumberName":"U-component_of_WINDS"},"data":[0,0,0,0,0,0,0,0,0,0,0,0,0,0,0,0,0,0,0,0,0,0,0,0,0,0,0,0,0,0,0,0,0,0,0,0,0,0,0,0,0,0,0,0,0,0,0,0,0,0,0,0,0,0,0,0,0,0,-0.4225,-0.4223,0,-0.4054,-0.4052,-0.405,-0.3979,-0.3979,-0.398,-0.398,-0.3801,-0.3796,-0.3791,0,0,0,0,0,0,0,0,0,0,0,0,0,-0.4488,-0.4484,-0.4225,-0.4223,-0.4221,-0.4054,-0.4052,-0.4049,-0.3979,-0.3979,-0.398,-0.398,-0.3803,-0.3797,-0.379,0,0,0,0,0,0,0,0,0,0,0,0,0,-0.4351,-0.4482,-0.4225,-0.4165,-0.4158,-0.4055,-0.4052,-0.4049,-0.3979,-0.3979,-0.398,-0.398,-0.3805,-0.3797,-0.379,-0.3731,0,0,-0.3766,-0.3763,0,0,0,0,0,0,0,0,-0.4359,-0.4341,-0.4176,-0.4169,-0.4161,-0.4038,-0.4079,-0.3942,-0.3979,-0.4047,-0.398,-0.3981,-0.3879,-0.3865,-0.3832,-0.3723,-0.3715,-0.3766,-0.3761,-0.3758,-0.3755,0,0,0,0,0,0,0,-0.4369,-0.4348,-0.4157,-0.4174,-0.4165,-0.4146,-0.4128,-0.4053,-0.3962,-0.4041,-0.4035,-0.4016,-0.3875,-0.384,-0.3827,-0.3713,-0.3766,-0.3759,-0.3754,-0.3751,-0.3548,-0.3548,0,0,0,0,0,0,-0.4388,-0.4357,-0.4162,-0.4152,-0.4264,-0.4141,-0.412,-0.4077,-0.3963,-0.3946,-0.4016,-0.4014,-0.3852,-0.3836,-0.3821,-0.3745,-0.3758,-0.375,-0.3746,-0.3549,-0.3548,-0.3547,0,0,0,0,0,0,-0.4394,-0.4372,-0.4169,-0.4253,-0.4226,-0.4136,-0.4088,-0.4074,-0.4038,-0.3944,-0.3927,-0.3997,-0.3852,-0.3832,-0.3755,-0.3738,-0.3747,-0.374,-0.355,-0.3549,-0.3548,-0.3595,0,0,0,0,0,0,-0.4402,-0.4374,-0.4352,-0.4253,-0.4222,-0.4107,-0.4087,-0.407,-0.4025,-0.4021,-0.3921,-0.3905,-0.3851,-0.3767,-0.3747,-0.3728,-0.3734,-0.3551,-0.355,-0.3548,-0.3594,-0.3595,-0.3596,0,0,0,0,0,-0.4412,-0.437,-0.4351,-0.4328,-0.4192,-0.4106,-0.4088,-0.4028,-0.4024,-0.4001,-0.394,-0.3908,-0.3744,-0.3759,-0.3737,-0.3715,-0.3552,-0.355,-0.3548,-0.3594,-0.3595,-0.3596,0,0,0,0,0,0,-0.4468,-0.4356,-0.4333,-0.4259,-0.4193,-0.4094,-0.4062,-0.4031,-0.3963,-0.3962,-0.3889,-0.3867,-0.3796,-0.3748,-0.3767,-0.3653,-0.3645,-0.3639,-0.3687,-0.3688,-0.3689,-0.3701,-0.3728,0,0,0,0,0,-0.4472,-0.4413,-0.4318,-0.4262,-0.423,-0.4152,-0.4113,-0.4073,-0.4,-0.3972,-0.3906,-0.3836,-0.3769,-0.3726,-0.3658,-0.3587,-0.3564,-0.3561,-0.3562,-0.3564,-0.3559,-0.3518,-0.3516,-0.3541,-0.3541,-0.3541,0,0,-0.4479,-0.4411,-0.4377,-0.4271,-0.4215,-0.4155,-0.4129,-0.4066,-0.4021,-0.3961,-0.3885,-0.3835,-0.3752,-0.3679,-0.3643,-0.3636,-0.3547,-0.3561,-0.3563,-0.3557,-0.3516,-0.3514,-0.3512,-0.354,-0.354,-0.3541,0,0,-0.446,-0.4403,-0.435,-0.4296,-0.4212,-0.4161,-0.4149,-0.4055,-0.402,-0.3943,-0.3898,-0.3842,-0.3727,-0.3671,-0.3627,-0.3591,-0.3558,-0.3571,-0.3575,-0.3537,-0.3535,-0.3532,-0.3519,-0.3516,-0.3566,-0.3566,-0.3566,0,-0.4479,-0.4388,-0.4327,-0.4267,-0.4222,-0.4168,-0.4114,-0.4063,-0.3961,-0.3931,-0.3925,-0.3782,-0.3722,-0.3635,-0.3626,-0.3593,-0.3576,-0.3581,-0.354,-0.3537,-0.3534,-0.3521,-0.3516,-0.3568,-0.3568,-0.3568,-0.3568,0,-0.4415,-0.4353,-0.432,-0.4225,-0.4176,-0.4119,-0.405,-0.4007,-0.3972,-0.3922,-0.3844,-0.3772,-0.3689,-0.3666,-0.363,-0.3573,-0.3572,-0.3554,-0.3544,-0.3535,-0.3521,-0.3516,-0.3571,-0.357,-0.357,-0.3569,0,0,-0.4425,-0.43,-0.4288,-0.4245,-0.415,-0.41,-0.4041,-0.3962,-0.3928,-0.386,-0.3808,-0.3714,-0.3698,-0.3648,-0.3606,-0.3572,-0.3548,-0.3558,-0.3555,-0.3559,-0.3482,-0.3495,-0.3491,-0.3527,-0.3526,-0.3525,-0.3489,0,-0.4394,-0.4288,-0.4232,-0.4149,-0.409,-0.404,-0.3988,-0.3924,-0.3876,-0.3819,-0.3765,-0.37,-0.3683,-0.3653,-0.3618,-0.3559,-0.3532,-0.3561,-0.3477,-0.3475,-0.3499,-0.3483,-0.3497,-0.3466,-0.3483,-0.3482,-0.3481,0,-0.4343,-0.4278,-0.419,-0.4103,-0.4076,-0.4031,-0.3955,-0.3901,-0.3828,-0.3795,-0.3742,-0.37,-0.3636,-0.3633,-0.3543,-0.3564,-0.3527,-0.3493,-0.3491,-0.348,-0.3477,-0.3472,-0.3455,-0.345,-0.3472,-0.3473,-0.3474,0,-0.436,-0.425,-0.4183,-0.4147,-0.4044,-0.4014,-0.3969,-0.3897,-0.3853,-0.3787,-0.3758,-0.3684,-0.3644,-0.3588,-0.3528,-0.3531,-0.3444,-0.3435,-0.3415,-0.3416,-0.3397,-0.3399,-0.3374,-0.3375,-0.3375,-0.3375,-0.3375,0,-0.433,-0.4278,-0.4189,-0.4148,-0.4088,-0.4025,-0.3967,-0.3919,-0.3855,-0.3803,-0.3754,-0.3706,-0.363,-0.3573,-0.3526,-0.3459,-0.3441,-0.3412,-0.34,-0.3416,-0.342,-0.339,-0.339,-0.3374,-0.3374,-0.3375,-0.3375,0,-0.4338,-0.4276,-0.42,-0.411,-0.4086,-0.4046,-0.3968,-0.3926,-0.3876,-0.3811,-0.3792,-0.3714,-0.3644,-0.358,-0.3486,-0.3454,-0.3387,-0.3371,-0.3412,-0.3405,-0.3388,-0.3391,-0.3342,-0.3333,-0.3341,-0.3341,-0.3341,0,-0.4322,-0.4281,-0.4188,-0.415,-0.4107,-0.4047,-0.4003,-0.394,-0.3896,-0.3811,-0.3779,-0.3706,-0.3645,-0.3535,-0.3469,-0.3398,-0.338,-0.3368,-0.3369,-0.3387,-0.3379,-0.3383,-0.3378,-0.3369,-0.3369,-0.3369,-0.337,0,-0.4302,-0.4274,-0.4214,-0.4143,-0.4093,-0.4033,-0.3972,-0.3944,-0.387,-0.3823,-0.3752,-0.3704,-0.361,-0.3538,-0.346,-0.3413,-0.3379,-0.3371,-0.3362,-0.3377,-0.3403,-0.3389,-0.3414,-0.3371,-0.3371,-0.3371,-0.3371,-0.3371,-0.4297,-0.4259,-0.4188,-0.4122,-0.407,-0.4015,-0.3972,-0.3918,-0.3858,-0.3777,-0.3743,-0.3672,-0.36,-0.3491,-0.3445,-0.3388,-0.338,-0.3368,-0.3364,-0.3362,-0.3365,-0.3413,-0.3373,-0.3373,-0.3373,-0.3373,-0.3373,0,-0.4274,-0.4227,-0.4167,-0.4085,-0.4033,-0.4008,-0.394,-0.3898,-0.3836,-0.3773,-0.3714,-0.3633,-0.3564,-0.3494,-0.342,-0.3388,-0.337,-0.3371,-0.3372,-0.3362,-0.3376,-0.3391,-0.3386,-0.3386,-0.3386,-0.3386,-0.3386,-0.3386,-0.4257,-0.4191,-0.4155,-0.4063,-0.4015,-0.3945,-0.3909,-0.3858,-0.3807,-0.3719,-0.3662,-0.3618,-0.3552,-0.3474,-0.3409,-0.339,-0.3365,-0.337,-0.3347,-0.3361,-0.3361,-0.336,-0.3373,-0.3365,-0.3365,-0.3336,-0.3336,-0.3336]},{"header":{"parameterUnit":"m.s-1","parameterCategory":1,"la1":30.2991,"la2":30.254,"lo1":-89.0895,"lo2":-89.0444,"dy":0.0017,"dx":0.0017,"nx":28,"ny":28,"refTime":"2023-07-25T03:00:00:Z","depth":0,"parameterNumber":3,"parameterNumberName":"V-component_of_WINDS"},"data":[0,0,0,0,0,0,0,0,0,0,0,0,0,0,0,0,0,0,0,0,0,0,0,0,0,0,0,0,0,0,0,0,0,0,0,0,0,0,0,0,0,0,0,0,0,0,0,0,0,0,0,0,0,0,0,0,0,0,3.142,3.142,0,3.1358,3.1357,3.1356,3.1372,3.1373,3.1374,3.1376,3.1303,3.13,3.1297,0,0,0,0,0,0,0,0,0,0,0,0,0,3.1546,3.1544,3.142,3.142,3.1419,3.1358,3.1357,3.1356,3.1372,3.1373,3.1375,3.1376,3.1304,3.13,3.1297,0,0,0,0,0,0,0,0,0,0,0,0,0,3.1488,3.1543,3.1421,3.1419,3.1419,3.1358,3.1357,3.1356,3.1371,3.1373,3.1375,3.1377,3.1305,3.1301,3.1296,3.123,0,0,3.1282,3.128,0,0,0,0,0,0,0,0,3.1491,3.1483,3.142,3.1419,3.1419,3.1375,3.1375,3.1313,3.1371,3.1389,3.1376,3.1378,3.1325,3.1319,3.1303,3.1227,3.1224,3.1282,3.1279,3.1277,3.1275,0,0,0,0,0,0,0,3.1495,3.1486,3.1395,3.1419,3.1418,3.142,3.1414,3.1363,3.1347,3.1388,3.1389,3.1381,3.1325,3.1307,3.1301,3.1223,3.1282,3.1278,3.1275,3.1273,3.109,3.1088,0,0,0,0,0,0,3.1501,3.1489,3.1397,3.1394,3.1461,3.1416,3.1409,3.1387,3.1348,3.1344,3.138,3.1382,3.1314,3.1306,3.1298,3.1219,3.1277,3.1272,3.127,3.1092,3.1089,3.1087,0,0,0,0,0,0,3.1504,3.1493,3.14,3.1442,3.143,3.1412,3.1387,3.1385,3.1367,3.1342,3.1338,3.1365,3.1315,3.1305,3.1248,3.1216,3.127,3.1266,3.1094,3.1091,3.1088,3.1059,0,0,0,0,0,0,3.1507,3.1494,3.147,3.1441,3.1428,3.1352,3.1385,3.1382,3.136,3.1363,3.1327,3.1323,3.1316,3.1255,3.1243,3.1211,3.1263,3.1097,3.1093,3.1089,3.1062,3.1055,3.1049,0,0,0,0,0,3.1512,3.1462,3.1469,3.1458,3.1398,3.135,3.1342,3.1337,3.1358,3.1332,3.1316,3.1324,3.1222,3.1249,3.1236,3.1202,3.1099,3.1094,3.1089,3.1065,3.1056,3.1049,0,0,0,0,0,0,3.1484,3.1458,3.1465,3.1406,3.1381,3.1353,3.1321,3.1328,3.1294,3.1298,3.1291,3.1282,3.1224,3.1207,3.1237,3.1136,3.1163,3.1155,3.1149,3.114,3.1134,3.1138,3.1259,0,0,0,0,0,3.1472,3.1438,3.1416,3.1365,3.1353,3.1339,3.1318,3.1317,3.1289,3.1278,3.1258,3.1228,3.119,3.1164,3.1127,3.106,3.1052,3.1031,3.1024,3.1018,3.1011,3.0975,3.0965,3.1071,3.1071,3.1071,0,0,3.1445,3.1427,3.1405,3.1359,3.134,3.1302,3.133,3.1289,3.1261,3.1271,3.1216,3.12,3.1167,3.1105,3.1077,3.1089,3.0981,3.1012,3.1008,3.1004,3.0969,3.0959,3.095,3.1068,3.1069,3.1069,0,0,3.1376,3.136,3.1316,3.1297,3.1268,3.126,3.1249,3.1221,3.1212,3.1158,3.1165,3.113,3.1064,3.104,3.1019,3.0944,3.0949,3.0932,3.0895,3.0859,3.0851,3.0844,3.0816,3.0806,3.0925,3.0925,3.0925,0,3.1345,3.1292,3.1292,3.1251,3.123,3.1241,3.1196,3.1176,3.1135,3.112,3.1135,3.1053,3.1032,3.0964,3.0946,3.0929,3.0915,3.0935,3.0853,3.0845,3.0838,3.0812,3.0802,3.0923,3.0923,3.0923,3.0924,0,3.1255,3.1218,3.1185,3.115,3.1125,3.1082,3.1073,3.1048,3.1049,3.1039,3.0983,3.0958,3.0917,3.0901,3.09,3.0833,3.0842,3.0855,3.0882,3.0826,3.0801,3.0791,3.092,3.0921,3.0921,3.0922,0,0,3.1165,3.1132,3.112,3.1104,3.1074,3.1044,3.1001,3.0964,3.0942,3.0914,3.0876,3.0821,3.0834,3.081,3.0807,3.0776,3.0718,3.0793,3.0792,3.0779,3.0642,3.0631,3.062,3.0722,3.072,3.0719,3.0644,0,3.1094,3.1022,3.1021,3.0953,3.0918,3.0929,3.0891,3.0867,3.0857,3.0823,3.081,3.0772,3.0792,3.0778,3.0747,3.0731,3.069,3.0737,3.0685,3.0683,3.0692,3.0607,3.0596,3.0527,3.0635,3.0633,3.0632,0,3.1001,3.0973,3.0903,3.0879,3.0864,3.0831,3.0797,3.0766,3.0739,3.0733,3.0708,3.071,3.0664,3.0694,3.0629,3.0661,3.064,3.0629,3.0626,3.062,3.0653,3.0598,3.0505,3.0494,3.0616,3.0618,3.0619,0,3.0942,3.0887,3.0838,3.0824,3.0795,3.0772,3.0758,3.0733,3.0711,3.068,3.0665,3.0629,3.0608,3.0579,3.057,3.0593,3.0506,3.0535,3.0498,3.0498,3.0478,3.0479,3.0379,3.0466,3.0466,3.0466,3.0467,0,3.0862,3.0818,3.0812,3.0781,3.0733,3.0731,3.0682,3.067,3.0648,3.0614,3.062,3.0587,3.0578,3.0543,3.0536,3.0484,3.0474,3.0467,3.0465,3.0466,3.0467,3.0451,3.0455,3.0464,3.0464,3.0465,3.0465,0,3.0787,3.0782,3.0729,3.0707,3.0701,3.0665,3.0645,3.0615,3.0607,3.0563,3.0553,3.0538,3.0497,3.0487,3.0437,3.0432,3.037,3.0373,3.038,3.038,3.0344,3.0347,3.023,3.0214,3.0311,3.0311,3.031,0,3.0736,3.0703,3.0679,3.0658,3.0645,3.061,3.0589,3.0586,3.0563,3.0531,3.0504,3.0465,3.0434,3.0368,3.0351,3.0313,3.0315,3.0276,3.0309,3.0311,3.0313,3.0315,3.0311,3.0269,3.0268,3.0268,3.0267,0,3.0646,3.0645,3.0615,3.0585,3.056,3.0534,3.051,3.0492,3.0486,3.0459,3.0419,3.0395,3.0347,3.0307,3.0269,3.0253,3.0258,3.0257,3.0247,3.0246,3.0252,3.0248,3.0362,3.0259,3.026,3.0261,3.0261,3.0261,3.0581,3.0553,3.0532,3.0498,3.0481,3.0458,3.0429,3.0418,3.0386,3.0348,3.0348,3.0305,3.0278,3.0229,3.021,3.0175,3.0186,3.0171,3.0167,3.0163,3.016,3.0259,3.0168,3.0168,3.0168,3.0168,3.0169,0,3.049,3.0478,3.0448,3.0415,3.0389,3.04,3.0374,3.035,3.0313,3.029,3.026,3.0214,3.0176,3.0157,3.0119,3.0095,3.0096,3.0085,3.0086,3.0082,3.0152,3.0165,3.0084,3.0084,3.0084,3.0084,3.0084,3.0084,3.044,3.0393,3.039,3.0334,3.0321,3.0281,3.0265,3.0244,3.0226,3.0176,3.0146,3.0135,3.0113,3.0073,3.0039,3.0034,3.0019,3.0006,3.0002,3.0068,3.0077,3.0085,3.0097,3.0003,3.0003,2.9935,2.9935,2.9934]}]]